Year,Month,Day,Hour,Minute,Value (Times are PST for barometer in hPa)
2015,12,10,00,00,995.80
2015,12,10,00,01,995.71
2015,12,10,00,02,995.63
2015,12,10,00,03,995.53
2015,12,10,00,04,995.50
2015,12,10,00,05,995.46
2015,12,10,00,06,995.43
2015,12,10,00,07,995.33
2015,12,10,00,08,995.19
2015,12,10,00,09,995.18
2015,12,10,00,10,995.02
2015,12,10,00,11,994.91
2015,12,10,00,12,994.79
2015,12,10,00,13,994.72
2015,12,10,00,14,994.58
2015,12,10,00,15,994.40
2015,12,10,00,16,994.28
2015,12,10,00,17,994.18
2015,12,10,00,18,994.18
2015,12,10,00,19,994.11
2015,12,10,00,20,994.07
2015,12,10,00,21,994.04
2015,12,10,00,22,994.04
2015,12,10,00,23,994.01
2015,12,10,00,24,994.03
2015,12,10,00,25,993.94
2015,12,10,00,26,993.91
2015,12,10,00,27,993.84
2015,12,10,00,28,993.77
2015,12,10,00,29,993.74
2015,12,10,00,30,993.63
2015,12,10,00,31,993.60
2015,12,10,00,32,993.53
2015,12,10,00,33,993.57
2015,12,10,00,34,993.53
2015,12,10,00,35,993.47
2015,12,10,00,36,993.33
2015,12,10,00,37,993.33
2015,12,10,00,38,993.33
2015,12,10,00,39,993.23
2015,12,10,00,40,993.19
2015,12,10,00,41,993.13
2015,12,10,00,42,993.06
2015,12,10,00,43,993.09
2015,12,10,00,44,993.13
2015,12,10,00,45,993.09
2015,12,10,00,46,993.09
2015,12,10,00,47,993.13
2015,12,10,00,48,993.06
2015,12,10,00,49,993.06
2015,12,10,00,50,992.96
2015,12,10,00,51,992.86
2015,12,10,00,52,992.89
2015,12,10,00,53,992.82
2015,12,10,00,54,992.72
2015,12,10,00,55,992.62
2015,12,10,00,56,992.52
2015,12,10,00,57,992.42
2015,12,10,00,58,992.45
2015,12,10,00,59,992.42
2015,12,10,01,00,992.42
2015,12,10,01,01,992.42
2015,12,10,01,02,992.35
2015,12,10,01,03,992.24
2015,12,10,01,04,992.14
2015,12,10,01,05,991.97
2015,12,10,01,06,991.81
2015,12,10,01,07,991.77
2015,12,10,01,08,991.64
2015,12,10,01,09,991.60
2015,12,10,01,10,991.47
2015,12,10,01,11,991.47
2015,12,10,01,12,991.47
2015,12,10,01,13,991.43
2015,12,10,01,14,991.30
2015,12,10,01,15,991.23
2015,12,10,01,16,991.16
2015,12,10,01,17,990.99
2015,12,10,01,18,991.06
2015,12,10,01,19,991.06
2015,12,10,01,20,991.06
2015,12,10,01,21,991.06
2015,12,10,01,22,990.99
2015,12,10,01,23,990.99
2015,12,10,01,24,990.96
2015,12,10,01,25,990.93
2015,12,10,01,26,990.86
2015,12,10,01,27,990.82
2015,12,10,01,28,990.79
2015,12,10,01,29,990.72
2015,12,10,01,30,990.62
2015,12,10,01,31,990.59
2015,12,10,01,32,990.52
2015,12,10,01,33,990.42
2015,12,10,01,34,990.32
2015,12,10,01,35,990.21
2015,12,10,01,36,990.10
2015,12,10,01,37,990.01
2015,12,10,01,38,989.84
2015,12,10,01,39,989.77
2015,12,10,01,40,989.71
2015,12,10,01,41,989.57
2015,12,10,01,42,989.47
2015,12,10,01,43,989.40
2015,12,10,01,44,989.37
2015,12,10,01,45,989.27
2015,12,10,01,46,989.13
2015,12,10,01,47,988.96
2015,12,10,01,48,988.86
2015,12,10,01,49,988.76
2015,12,10,01,50,988.66
2015,12,10,01,51,988.61
2015,12,10,01,52,988.52
2015,12,10,01,53,988.52
2015,12,10,01,54,988.49
2015,12,10,01,55,988.52
2015,12,10,01,56,988.35
2015,12,10,01,57,988.28
2015,12,10,01,58,988.32
2015,12,10,01,59,988.32
2015,12,10,02,00,988.32
2015,12,10,02,01,988.42
2015,12,10,02,02,988.42
2015,12,10,02,03,988.35
2015,12,10,02,04,988.35
2015,12,10,02,05,988.25
2015,12,10,02,06,988.32
2015,12,10,02,07,988.32
2015,12,10,02,08,988.42
2015,12,10,02,09,988.39
2015,12,10,02,10,988.28
2015,12,10,02,11,988.32
2015,12,10,02,12,988.35
2015,12,10,02,13,988.28
2015,12,10,02,14,988.45
2015,12,10,02,15,988.42
2015,12,10,02,16,988.35
2015,12,10,02,17,988.39
2015,12,10,02,18,988.32
2015,12,10,02,19,988.28
2015,12,10,02,20,988.42
2015,12,10,02,21,988.38
2015,12,10,02,22,988.22
2015,12,10,02,23,988.08
2015,12,10,02,24,988.08
2015,12,10,02,25,988.01
2015,12,10,02,26,987.95
2015,12,10,02,27,987.98
2015,12,10,02,28,987.91
2015,12,10,02,29,987.84
2015,12,10,02,30,987.81
2015,12,10,02,31,987.74
2015,12,10,02,32,987.67
2015,12,10,02,33,987.71
2015,12,10,02,34,987.61
2015,12,10,02,35,987.61
2015,12,10,02,36,987.51
2015,12,10,02,37,987.40
2015,12,10,02,38,987.30
2015,12,10,02,39,987.23
2015,12,10,02,40,987.20
2015,12,10,02,41,987.17
2015,12,10,02,42,987.07
2015,12,10,02,43,987.00
2015,12,10,02,44,986.96
2015,12,10,02,45,986.90
2015,12,10,02,46,986.86
2015,12,10,02,47,986.90
2015,12,10,02,48,986.79
2015,12,10,02,49,986.86
2015,12,10,02,50,986.66
2015,12,10,02,51,986.58
2015,12,10,02,52,986.42
2015,12,10,02,53,986.46
2015,12,10,02,54,986.45
2015,12,10,02,55,986.29
2015,12,10,02,56,986.35
2015,12,10,02,57,986.29
2015,12,10,02,58,986.29
2015,12,10,02,59,986.29
2015,12,10,03,00,986.25
2015,12,10,03,01,986.22
2015,12,10,03,02,986.22
2015,12,10,03,03,986.15
2015,12,10,03,04,986.12
2015,12,10,03,05,986.12
2015,12,10,03,06,986.08
2015,12,10,03,07,986.08
2015,12,10,03,08,986.08
2015,12,10,03,09,986.08
2015,12,10,03,10,986.05
2015,12,10,03,11,986.10
2015,12,10,03,12,985.79
2015,12,10,03,13,985.95
2015,12,10,03,14,986.08
2015,12,10,03,15,986.05
2015,12,10,03,16,986.02
2015,12,10,03,17,985.98
2015,12,10,03,18,985.97
2015,12,10,03,19,985.78
2015,12,10,03,20,985.81
2015,12,10,03,21,985.78
2015,12,10,03,22,985.85
2015,12,10,03,23,985.72
2015,12,10,03,24,985.84
2015,12,10,03,25,985.74
2015,12,10,03,26,985.74
2015,12,10,03,27,985.74
2015,12,10,03,28,985.85
2015,12,10,03,29,985.68
2015,12,10,03,30,985.74
2015,12,10,03,31,985.78
2015,12,10,03,32,985.85
2015,12,10,03,33,985.81
2015,12,10,03,34,985.74
2015,12,10,03,35,985.81
2015,12,10,03,36,985.74
2015,12,10,03,37,985.85
2015,12,10,03,38,985.81
2015,12,10,03,39,985.71
2015,12,10,03,40,985.61
2015,12,10,03,41,985.64
2015,12,10,03,42,985.68
2015,12,10,03,43,985.64
2015,12,10,03,44,985.61
2015,12,10,03,45,985.68
2015,12,10,03,46,985.61
2015,12,10,03,47,985.51
2015,12,10,03,48,985.41
2015,12,10,03,49,985.47
2015,12,10,03,50,985.44
2015,12,10,03,51,985.47
2015,12,10,03,52,985.51
2015,12,10,03,53,985.51
2015,12,10,03,54,985.47
2015,12,10,03,55,985.44
2015,12,10,03,56,985.44
2015,12,10,03,57,985.51
2015,12,10,03,58,985.51
2015,12,10,03,59,985.37
2015,12,10,04,00,985.34
2015,12,10,04,01,985.37
2015,12,10,04,02,985.34
2015,12,10,04,03,985.36
2015,12,10,04,04,985.27
2015,12,10,04,05,985.24
2015,12,10,04,06,985.20
2015,12,10,04,07,985.20
2015,12,10,04,08,985.13
2015,12,10,04,09,985.17
2015,12,10,04,10,985.20
2015,12,10,04,11,985.17
2015,12,10,04,12,985.07
2015,12,10,04,13,985.03
2015,12,10,04,14,985.10
2015,12,10,04,15,984.99
2015,12,10,04,16,984.90
2015,12,10,04,17,984.86
2015,12,10,04,18,984.93
2015,12,10,04,19,985.03
2015,12,10,04,20,985.10
2015,12,10,04,21,985.10
2015,12,10,04,22,985.10
2015,12,10,04,23,985.03
2015,12,10,04,24,984.97
2015,12,10,04,25,984.97
2015,12,10,04,26,985.03
2015,12,10,04,27,984.97
2015,12,10,04,28,985.00
2015,12,10,04,29,985.00
2015,12,10,04,30,984.97
2015,12,10,04,31,985.07
2015,12,10,04,32,984.93
2015,12,10,04,33,984.99
2015,12,10,04,34,984.90
2015,12,10,04,35,984.93
2015,12,10,04,36,984.86
2015,12,10,04,37,984.90
2015,12,10,04,38,984.93
2015,12,10,04,39,984.97
2015,12,10,04,40,984.93
2015,12,10,04,41,984.97
2015,12,10,04,42,984.90
2015,12,10,04,43,984.97
2015,12,10,04,44,984.97
2015,12,10,04,45,984.92
2015,12,10,04,46,984.83
2015,12,10,04,47,984.66
2015,12,10,04,48,984.63
2015,12,10,04,49,984.49
2015,12,10,04,50,984.41
2015,12,10,04,51,984.32
2015,12,10,04,52,984.25
2015,12,10,04,53,984.29
2015,12,10,04,54,984.26
2015,12,10,04,55,984.39
2015,12,10,04,56,984.46
2015,12,10,04,57,984.46
2015,12,10,04,58,984.42
2015,12,10,04,59,984.39
2015,12,10,05,00,984.42
2015,12,10,05,01,984.42
2015,12,10,05,02,984.32
2015,12,10,05,03,984.32
2015,12,10,05,04,984.29
2015,12,10,05,05,984.18
2015,12,10,05,06,984.02
2015,12,10,05,07,984.02
2015,12,10,05,08,984.08
2015,12,10,05,09,983.94
2015,12,10,05,10,983.81
2015,12,10,05,11,983.68
2015,12,10,05,12,983.68
2015,12,10,05,13,983.75
2015,12,10,05,14,983.63
2015,12,10,05,15,983.41
2015,12,10,05,16,983.37
2015,12,10,05,17,983.44
2015,12,10,05,18,983.44
2015,12,10,05,19,983.51
2015,12,10,05,20,983.58
2015,12,10,05,21,983.54
2015,12,10,05,22,983.58
2015,12,10,05,23,983.58
2015,12,10,05,24,983.61
2015,12,10,05,25,983.61
2015,12,10,05,26,983.51
2015,12,10,05,27,983.51
2015,12,10,05,28,983.41
2015,12,10,05,29,983.37
2015,12,10,05,30,983.34
2015,12,10,05,31,983.27
2015,12,10,05,32,983.24
2015,12,10,05,33,983.24
2015,12,10,05,34,983.31
2015,12,10,05,35,983.34
2015,12,10,05,36,983.37
2015,12,10,05,37,983.41
2015,12,10,05,38,983.27
2015,12,10,05,39,983.27
2015,12,10,05,40,983.24
2015,12,10,05,41,983.31
2015,12,10,05,42,983.31
2015,12,10,05,43,983.31
2015,12,10,05,44,983.31
2015,12,10,05,45,983.27
2015,12,10,05,46,983.34
2015,12,10,05,47,983.31
2015,12,10,05,48,983.34
2015,12,10,05,49,983.34
2015,12,10,05,50,983.34
2015,12,10,05,51,983.34
2015,12,10,05,52,983.37
2015,12,10,05,53,983.37
2015,12,10,05,54,983.34
2015,12,10,05,55,983.31
2015,12,10,05,56,983.27
2015,12,10,05,57,983.20
2015,12,10,05,58,983.14
2015,12,10,05,59,983.10
2015,12,10,06,00,983.07
2015,12,10,06,01,983.00
2015,12,10,06,02,982.97
2015,12,10,06,03,982.87
2015,12,10,06,04,982.87
2015,12,10,06,05,982.76
2015,12,10,06,06,982.73
2015,12,10,06,07,982.70
2015,12,10,06,08,982.59
2015,12,10,06,09,982.53
2015,12,10,06,10,982.49
2015,12,10,06,11,982.46
2015,12,10,06,12,982.43
2015,12,10,06,13,982.39
2015,12,10,06,14,982.32
2015,12,10,06,15,982.22
2015,12,10,06,16,982.09
2015,12,10,06,17,982.09
2015,12,10,06,18,982.02
2015,12,10,06,19,981.99
2015,12,10,06,20,981.95
2015,12,10,06,21,981.88
2015,12,10,06,22,981.92
2015,12,10,06,23,981.99
2015,12,10,06,24,981.92
2015,12,10,06,25,981.95
2015,12,10,06,26,981.92
2015,12,10,06,27,981.85
2015,12,10,06,28,981.92
2015,12,10,06,29,981.92
2015,12,10,06,30,981.95
2015,12,10,06,31,981.99
2015,12,10,06,32,981.92
2015,12,10,06,33,981.88
2015,12,10,06,34,981.88
2015,12,10,06,35,981.85
2015,12,10,06,36,981.85
2015,12,10,06,37,981.85
2015,12,10,06,38,981.85
2015,12,10,06,39,981.85
2015,12,10,06,40,981.85
2015,12,10,06,41,981.88
2015,12,10,06,42,981.88
2015,12,10,06,43,981.78
2015,12,10,06,44,981.78
2015,12,10,06,45,981.68
2015,12,10,06,46,981.71
2015,12,10,06,47,981.71
2015,12,10,06,48,981.68
2015,12,10,06,49,981.61
2015,12,10,06,50,981.55
2015,12,10,06,51,981.52
2015,12,10,06,52,981.61
2015,12,10,06,53,981.65
2015,12,10,06,54,981.65
2015,12,10,06,55,981.58
2015,12,10,06,56,981.51
2015,12,10,06,57,981.58
2015,12,10,06,58,981.58
2015,12,10,06,59,981.51
2015,12,10,07,00,981.51
2015,12,10,07,01,981.58
2015,12,10,07,02,981.51
2015,12,10,07,03,981.48
2015,12,10,07,04,981.48
2015,12,10,07,05,981.41
2015,12,10,07,06,981.50
2015,12,10,07,07,981.38
2015,12,10,07,08,981.27
2015,12,10,07,09,981.31
2015,12,10,07,10,981.24
2015,12,10,07,11,981.24
2015,12,10,07,12,981.24
2015,12,10,07,13,981.17
2015,12,10,07,14,981.10
2015,12,10,07,15,981.10
2015,12,10,07,16,981.04
2015,12,10,07,17,981.04
2015,12,10,07,18,980.96
2015,12,10,07,19,980.80
2015,12,10,07,20,980.87
2015,12,10,07,21,980.83
2015,12,10,07,22,980.77
2015,12,10,07,23,980.80
2015,12,10,07,24,980.70
2015,12,10,07,25,980.60
2015,12,10,07,26,980.56
2015,12,10,07,27,980.60
2015,12,10,07,28,980.56
2015,12,10,07,29,980.60
2015,12,10,07,30,980.60
2015,12,10,07,31,980.60
2015,12,10,07,32,980.53
2015,12,10,07,33,980.53
2015,12,10,07,34,980.56
2015,12,10,07,35,980.53
2015,12,10,07,36,980.42
2015,12,10,07,37,980.29
2015,12,10,07,38,980.29
2015,12,10,07,39,980.22
2015,12,10,07,40,980.16
2015,12,10,07,41,980.12
2015,12,10,07,42,980.09
2015,12,10,07,43,980.12
2015,12,10,07,44,980.09
2015,12,10,07,45,980.09
2015,12,10,07,46,980.06
2015,12,10,07,47,979.99
2015,12,10,07,48,980.02
2015,12,10,07,49,979.99
2015,12,10,07,50,979.95
2015,12,10,07,51,979.92
2015,12,10,07,52,979.92
2015,12,10,07,53,979.82
2015,12,10,07,54,979.85
2015,12,10,07,55,979.82
2015,12,10,07,56,979.78
2015,12,10,07,57,979.62
2015,12,10,07,58,979.75
2015,12,10,07,59,979.75
2015,12,10,08,00,979.58
2015,12,10,08,01,979.51
2015,12,10,08,02,979.55
2015,12,10,08,03,979.58
2015,12,10,08,04,979.48
2015,12,10,08,05,979.41
2015,12,10,08,06,979.38
2015,12,10,08,07,979.31
2015,12,10,08,08,979.28
2015,12,10,08,09,979.28
2015,12,10,08,10,979.21
2015,12,10,08,11,979.11
2015,12,10,08,12,979.04
2015,12,10,08,13,979.04
2015,12,10,08,14,979.04
2015,12,10,08,15,979.07
2015,12,10,08,16,979.14
2015,12,10,08,17,979.14
2015,12,10,08,18,979.17
2015,12,10,08,19,979.17
2015,12,10,08,20,979.11
2015,12,10,08,21,979.11
2015,12,10,08,22,979.07
2015,12,10,08,23,979.04
2015,12,10,08,24,979.04
2015,12,10,08,25,979.07
2015,12,10,08,26,979.11
2015,12,10,08,27,979.04
2015,12,10,08,28,979.01
2015,12,10,08,29,978.94
2015,12,10,08,30,978.90
2015,12,10,08,31,978.94
2015,12,10,08,32,978.90
2015,12,10,08,33,978.90
2015,12,10,08,34,978.94
2015,12,10,08,35,979.01
2015,12,10,08,36,979.01
2015,12,10,08,37,979.04
2015,12,10,08,38,979.11
2015,12,10,08,39,979.10
2015,12,10,08,40,979.01
2015,12,10,08,41,979.01
2015,12,10,08,42,978.96
2015,12,10,08,43,978.84
2015,12,10,08,44,978.73
2015,12,10,08,45,978.77
2015,12,10,08,46,978.73
2015,12,10,08,47,978.80
2015,12,10,08,48,978.77
2015,12,10,08,49,978.57
2015,12,10,08,50,978.63
2015,12,10,08,51,978.70
2015,12,10,08,52,978.73
2015,12,10,08,53,978.67
2015,12,10,08,54,978.63
2015,12,10,08,55,978.67
2015,12,10,08,56,978.70
2015,12,10,08,57,978.77
2015,12,10,08,58,978.73
2015,12,10,08,59,978.70
2015,12,10,09,00,978.73
2015,12,10,09,01,978.73
2015,12,10,09,02,978.80
2015,12,10,09,03,978.80
2015,12,10,09,04,978.90
2015,12,10,09,05,978.90
2015,12,10,09,06,978.87
2015,12,10,09,07,978.94
2015,12,10,09,08,978.94
2015,12,10,09,09,979.01
2015,12,10,09,10,978.97
2015,12,10,09,11,978.94
2015,12,10,09,12,979.01
2015,12,10,09,13,979.07
2015,12,10,09,14,979.11
2015,12,10,09,15,979.14
2015,12,10,09,16,979.17
2015,12,10,09,17,979.21
2015,12,10,09,18,979.24
2015,12,10,09,19,979.28
2015,12,10,09,20,979.31
2015,12,10,09,21,979.38
2015,12,10,09,22,979.31
2015,12,10,09,23,979.32
2015,12,10,09,24,979.41
2015,12,10,09,25,979.41
2015,12,10,09,26,979.38
2015,12,10,09,27,979.41
2015,12,10,09,28,979.38
2015,12,10,09,29,979.31
2015,12,10,09,30,979.38
2015,12,10,09,31,979.34
2015,12,10,09,32,979.38
2015,12,10,09,33,979.38
2015,12,10,09,34,979.34
2015,12,10,09,35,979.31
2015,12,10,09,36,979.24
2015,12,10,09,37,979.24
2015,12,10,09,38,979.21
2015,12,10,09,39,979.21
2015,12,10,09,40,979.21
2015,12,10,09,41,979.21
2015,12,10,09,42,979.21
2015,12,10,09,43,979.24
2015,12,10,09,44,979.24
2015,12,10,09,45,979.17
2015,12,10,09,46,979.17
2015,12,10,09,47,979.21
2015,12,10,09,48,979.21
2015,12,10,09,49,979.24
2015,12,10,09,50,979.17
2015,12,10,09,51,979.11
2015,12,10,09,52,979.04
2015,12,10,09,53,979.01
2015,12,10,09,54,978.90
2015,12,10,09,55,978.84
2015,12,10,09,56,978.73
2015,12,10,09,57,978.73
2015,12,10,09,58,978.67
2015,12,10,09,59,978.63
2015,12,10,10,00,978.63
2015,12,10,10,01,978.67
2015,12,10,10,02,978.63
2015,12,10,10,03,978.70
2015,12,10,10,04,978.70
2015,12,10,10,05,978.73
2015,12,10,10,06,978.70
2015,12,10,10,07,978.73
2015,12,10,10,08,978.80
2015,12,10,10,09,978.84
2015,12,10,10,10,978.84
2015,12,10,10,11,978.77
2015,12,10,10,12,978.84
2015,12,10,10,13,978.87
2015,12,10,10,14,978.87
2015,12,10,10,15,978.94
2015,12,10,10,16,978.94
2015,12,10,10,17,978.94
2015,12,10,10,18,978.90
2015,12,10,10,19,978.87
2015,12,10,10,20,978.80
2015,12,10,10,21,978.84
2015,12,10,10,22,978.87
2015,12,10,10,23,978.94
2015,12,10,10,24,978.87
2015,12,10,10,25,978.84
2015,12,10,10,26,978.87
2015,12,10,10,27,978.84
2015,12,10,10,28,978.73
2015,12,10,10,29,978.70
2015,12,10,10,30,978.73
2015,12,10,10,31,978.67
2015,12,10,10,32,978.67
2015,12,10,10,33,978.70
2015,12,10,10,34,978.70
2015,12,10,10,35,978.67
2015,12,10,10,36,978.73
2015,12,10,10,37,978.77
2015,12,10,10,38,978.80
2015,12,10,10,39,978.87
2015,12,10,10,40,978.90
2015,12,10,10,41,978.90
2015,12,10,10,42,978.87
2015,12,10,10,43,978.80
2015,12,10,10,44,978.73
2015,12,10,10,45,978.73
2015,12,10,10,46,978.84
2015,12,10,10,47,978.84
2015,12,10,10,48,978.84
2015,12,10,10,49,978.90
2015,12,10,10,50,979.01
2015,12,10,10,51,979.04
2015,12,10,10,52,979.01
2015,12,10,10,53,979.01
2015,12,10,10,54,978.97
2015,12,10,10,55,979.01
2015,12,10,10,56,979.04
2015,12,10,10,57,978.97
2015,12,10,10,58,978.97
2015,12,10,10,59,978.97
2015,12,10,11,00,979.01
2015,12,10,11,01,979.01
2015,12,10,11,02,978.97
2015,12,10,11,03,979.01
2015,12,10,11,04,978.90
2015,12,10,11,05,978.94
2015,12,10,11,06,978.94
2015,12,10,11,07,978.94
2015,12,10,11,08,978.90
2015,12,10,11,09,978.90
2015,12,10,11,10,978.97
2015,12,10,11,11,979.01
2015,12,10,11,12,978.97
2015,12,10,11,13,979.01
2015,12,10,11,14,979.01
2015,12,10,11,15,979.11
2015,12,10,11,16,979.14
2015,12,10,11,17,979.21
2015,12,10,11,18,979.17
2015,12,10,11,19,979.24
2015,12,10,11,20,979.34
2015,12,10,11,21,979.34
2015,12,10,11,22,979.41
2015,12,10,11,23,979.41
2015,12,10,11,24,979.41
2015,12,10,11,25,979.45
2015,12,10,11,26,979.41
2015,12,10,11,27,979.45
2015,12,10,11,28,979.41
2015,12,10,11,29,979.41
2015,12,10,11,30,979.38
2015,12,10,11,31,979.45
2015,12,10,11,32,979.51
2015,12,10,11,33,979.51
2015,12,10,11,34,979.48
2015,12,10,11,35,979.41
2015,12,10,11,36,979.38
2015,12,10,11,37,979.28
2015,12,10,11,38,979.24
2015,12,10,11,39,979.31
2015,12,10,11,40,979.38
2015,12,10,11,41,979.41
2015,12,10,11,42,979.48
2015,12,10,11,43,979.55
2015,12,10,11,44,979.61
2015,12,10,11,45,979.61
2015,12,10,11,46,979.55
2015,12,10,11,47,979.58
2015,12,10,11,48,979.55
2015,12,10,11,49,979.51
2015,12,10,11,50,979.48
2015,12,10,11,51,979.48
2015,12,10,11,52,979.51
2015,12,10,11,53,979.48
2015,12,10,11,54,979.48
2015,12,10,11,55,979.51
2015,12,10,11,56,979.51
2015,12,10,11,57,979.48
2015,12,10,11,58,979.45
2015,12,10,11,59,979.45
2015,12,10,12,00,979.48
2015,12,10,12,01,979.45
2015,12,10,12,02,979.41
2015,12,10,12,03,979.34
2015,12,10,12,04,979.38
2015,12,10,12,05,979.38
2015,12,10,12,06,979.34
2015,12,10,12,07,979.31
2015,12,10,12,08,979.24
2015,12,10,12,09,979.24
2015,12,10,12,10,979.28
2015,12,10,12,11,979.24
2015,12,10,12,12,979.28
2015,12,10,12,13,979.31
2015,12,10,12,14,979.34
2015,12,10,12,15,979.38
2015,12,10,12,16,979.34
2015,12,10,12,17,979.31
2015,12,10,12,18,979.31
2015,12,10,12,19,979.38
2015,12,10,12,20,979.41
2015,12,10,12,21,979.48
2015,12,10,12,22,979.48
2015,12,10,12,23,979.51
2015,12,10,12,24,979.48
2015,12,10,12,25,979.48
2015,12,10,12,26,979.55
2015,12,10,12,27,979.58
2015,12,10,12,28,979.58
2015,12,10,12,29,979.55
2015,12,10,12,30,979.55
2015,12,10,12,31,979.58
2015,12,10,12,32,979.55
2015,12,10,12,33,979.55
2015,12,10,12,34,979.55
2015,12,10,12,35,979.51
2015,12,10,12,36,979.48
2015,12,10,12,37,979.48
2015,12,10,12,38,979.45
2015,12,10,12,39,979.45
2015,12,10,12,40,979.51
2015,12,10,12,41,979.51
2015,12,10,12,42,979.52
2015,12,10,12,43,979.61
2015,12,10,12,44,979.58
2015,12,10,12,45,979.68
2015,12,10,12,46,979.82
2015,12,10,12,47,979.92
2015,12,10,12,48,980.03
2015,12,10,12,49,980.12
2015,12,10,12,50,980.16
2015,12,10,12,51,980.22
2015,12,10,12,52,980.26
2015,12,10,12,53,980.29
2015,12,10,12,54,980.27
2015,12,10,12,55,980.36
2015,12,10,12,56,980.43
2015,12,10,12,57,980.39
2015,12,10,12,58,980.29
2015,12,10,12,59,980.22
2015,12,10,13,00,980.33
2015,12,10,13,01,980.36
2015,12,10,13,02,980.43
2015,12,10,13,03,980.56
2015,12,10,13,04,980.66
2015,12,10,13,05,980.70
2015,12,10,13,06,980.77
2015,12,10,13,07,980.73
2015,12,10,13,08,980.66
2015,12,10,13,09,980.74
2015,12,10,13,10,981.07
2015,12,10,13,11,981.07
2015,12,10,13,12,980.94
2015,12,10,13,13,981.10
2015,12,10,13,14,981.24
2015,12,10,13,15,981.32
2015,12,10,13,16,981.41
2015,12,10,13,17,981.31
2015,12,10,13,18,981.44
2015,12,10,13,19,981.31
2015,12,10,13,20,981.38
2015,12,10,13,21,981.49
2015,12,10,13,22,981.82
2015,12,10,13,23,981.51
2015,12,10,13,24,981.55
2015,12,10,13,25,981.61
2015,12,10,13,26,981.61
2015,12,10,13,27,981.65
2015,12,10,13,28,981.72
2015,12,10,13,29,981.82
2015,12,10,13,30,981.75
2015,12,10,13,31,981.71
2015,12,10,13,32,981.68
2015,12,10,13,33,981.52
2015,12,10,13,34,981.61
2015,12,10,13,35,981.68
2015,12,10,13,36,981.71
2015,12,10,13,37,981.78
2015,12,10,13,38,981.88
2015,12,10,13,39,981.88
2015,12,10,13,40,981.85
2015,12,10,13,41,981.82
2015,12,10,13,42,981.88
2015,12,10,13,43,981.85
2015,12,10,13,44,981.85
2015,12,10,13,45,981.85
2015,12,10,13,46,981.95
2015,12,10,13,47,981.99
2015,12,10,13,48,981.99
2015,12,10,13,49,981.88
2015,12,10,13,50,981.85
2015,12,10,13,51,981.92
2015,12,10,13,52,981.99
2015,12,10,13,53,982.09
2015,12,10,13,54,982.09
2015,12,10,13,55,982.17
2015,12,10,13,56,982.49
2015,12,10,13,57,982.49
2015,12,10,13,58,982.56
2015,12,10,13,59,982.56
2015,12,10,14,00,982.66
2015,12,10,14,01,982.73
2015,12,10,14,02,982.76
2015,12,10,14,03,982.76
2015,12,10,14,04,982.73
2015,12,10,14,05,982.83
2015,12,10,14,06,983.00
2015,12,10,14,07,982.90
2015,12,10,14,08,982.80
2015,12,10,14,09,982.97
2015,12,10,14,10,982.93
2015,12,10,14,11,982.97
2015,12,10,14,12,982.90
2015,12,10,14,13,982.97
2015,12,10,14,14,982.97
2015,12,10,14,15,982.90
2015,12,10,14,16,982.93
2015,12,10,14,17,983.00
2015,12,10,14,18,982.93
2015,12,10,14,19,983.01
2015,12,10,14,20,983.17
2015,12,10,14,21,983.10
2015,12,10,14,22,983.24
2015,12,10,14,23,983.20
2015,12,10,14,24,983.27
2015,12,10,14,25,983.24
2015,12,10,14,26,983.24
2015,12,10,14,27,983.27
2015,12,10,14,28,983.27
2015,12,10,14,29,983.34
2015,12,10,14,30,983.24
2015,12,10,14,31,983.18
2015,12,10,14,32,983.31
2015,12,10,14,33,983.27
2015,12,10,14,34,983.18
2015,12,10,14,35,983.48
2015,12,10,14,36,983.44
2015,12,10,14,37,983.41
2015,12,10,14,38,983.34
2015,12,10,14,39,983.44
2015,12,10,14,40,983.37
2015,12,10,14,41,983.41
2015,12,10,14,42,983.41
2015,12,10,14,43,983.37
2015,12,10,14,44,983.37
2015,12,10,14,45,983.48
2015,12,10,14,46,983.51
2015,12,10,14,47,983.44
2015,12,10,14,48,983.48
2015,12,10,14,49,983.54
2015,12,10,14,50,983.64
2015,12,10,14,51,983.58
2015,12,10,14,52,983.59
2015,12,10,14,53,983.78
2015,12,10,14,54,983.88
2015,12,10,14,55,983.81
2015,12,10,14,56,983.85
2015,12,10,14,57,983.78
2015,12,10,14,58,983.81
2015,12,10,14,59,983.95
2015,12,10,15,00,983.95
2015,12,10,15,01,984.03
2015,12,10,15,02,984.15
2015,12,10,15,03,984.13
2015,12,10,15,04,984.24
2015,12,10,15,05,984.12
2015,12,10,15,06,984.12
2015,12,10,15,07,984.22
2015,12,10,15,08,984.25
2015,12,10,15,09,984.20
2015,12,10,15,10,984.36
2015,12,10,15,11,984.29
2015,12,10,15,12,984.25
2015,12,10,15,13,984.29
2015,12,10,15,14,984.36
2015,12,10,15,15,984.53
2015,12,10,15,16,984.73
2015,12,10,15,17,984.80
2015,12,10,15,18,984.90
2015,12,10,15,19,984.97
2015,12,10,15,20,985.24
2015,12,10,15,21,985.34
2015,12,10,15,22,985.41
2015,12,10,15,23,985.47
2015,12,10,15,24,985.41
2015,12,10,15,25,985.54
2015,12,10,15,26,985.47
2015,12,10,15,27,985.53
2015,12,10,15,28,985.41
2015,12,10,15,29,985.44
2015,12,10,15,30,985.44
2015,12,10,15,31,985.47
2015,12,10,15,32,985.37
2015,12,10,15,33,985.41
2015,12,10,15,34,985.34
2015,12,10,15,35,985.37
2015,12,10,15,36,985.30
2015,12,10,15,37,985.24
2015,12,10,15,38,985.30
2015,12,10,15,39,985.34
2015,12,10,15,40,985.41
2015,12,10,15,41,985.51
2015,12,10,15,42,985.54
2015,12,10,15,43,985.51
2015,12,10,15,44,985.54
2015,12,10,15,45,985.61
2015,12,10,15,46,985.57
2015,12,10,15,47,985.64
2015,12,10,15,48,985.68
2015,12,10,15,49,985.71
2015,12,10,15,50,985.81
2015,12,10,15,51,985.91
2015,12,10,15,52,985.88
2015,12,10,15,53,985.85
2015,12,10,15,54,985.95
2015,12,10,15,55,986.05
2015,12,10,15,56,986.08
2015,12,10,15,57,986.15
2015,12,10,15,58,986.22
2015,12,10,15,59,986.25
2015,12,10,16,00,986.18
2015,12,10,16,01,986.25
2015,12,10,16,02,986.25
2015,12,10,16,03,986.25
2015,12,10,16,04,986.29
2015,12,10,16,05,986.32
2015,12,10,16,06,986.25
2015,12,10,16,07,986.32
2015,12,10,16,08,986.29
2015,12,10,16,09,986.33
2015,12,10,16,10,986.40
2015,12,10,16,11,986.08
2015,12,10,16,12,986.22
2015,12,10,16,13,986.29
2015,12,10,16,14,986.12
2015,12,10,16,15,986.14
2015,12,10,16,16,985.95
2015,12,10,16,17,985.95
2015,12,10,16,18,985.81
2015,12,10,16,19,985.81
2015,12,10,16,20,985.71
2015,12,10,16,21,985.81
2015,12,10,16,22,985.78
2015,12,10,16,23,985.88
2015,12,10,16,24,985.81
2015,12,10,16,25,985.78
2015,12,10,16,26,985.81
2015,12,10,16,27,985.95
2015,12,10,16,28,986.05
2015,12,10,16,29,986.15
2015,12,10,16,30,986.25
2015,12,10,16,31,986.33
2015,12,10,16,32,986.42
2015,12,10,16,33,986.56
2015,12,10,16,34,986.62
2015,12,10,16,35,986.76
2015,12,10,16,36,986.79